Terremoto di magnitudo ML 2.4 del 12-06-2024 ore 04:42:44 (Italia) in zona: Mar Ionio Settentrionale (MARE)

Un terremoto di magnitudo ML 2.4 è avvenuto nella zona: Mar Ionio Settentrionale (MARE), il

  • 12-06-2024 02:42:44 (UTC)
  • 12-06-2024 04:42:44 (UTC +02:00) ora italiana

con coordinate geografiche (lat, lon) 37.9600, 16.9580 ad una profondità di 44 km.

Il terremoto è stato localizzato da: Sala Sismica INGV-Roma.

Ricerca terremoti: Qualsiasi nel raggio di 30 km

I valori delle coordinate ipocentrali e della magnitudo rappresentano la migliore stima con i dati a disposizione. Eventuali nuovi dati o analisi potrebbero far variare tali stime.

Visualizza la localizzazione con

Comuni entro 20 km dall'epicentro

Nessun comune italiano entro 20 km dall'epicentro.

Città più vicine con almeno 50000 abitanti

Nessun comune italiano entro 100 km dall'epicentro con almeno 50000 abitanti.

Sismicità recente e storica
Pericolosità sismica
Mappe di scuotimento
Mappa del risentimento sismico
Cronologia delle localizzazioni calcolate
Tipo Magnitudo Tempo origine (UTC) Latitudine Longitudine Profondità (km) Ora pubblicazione (UTC) Autore ID Localizzazione
Rivista
Rev100
ML 2.4 2024-06-12
02:42:44
37.9603 16.9582 45 2024-06-12
03:09:20
Sala Sismica INGV-Roma 128794001
Localizzazione e magnitudo preferite finora.
Parametri della localizzazione preferita

Localizzazione

Campo Valore
Tempo (UTC) 2024-06-12 02:42:44 ± 0.22
Latitudine 37.9603 ± 0.0153
Longitudine 16.9582 ± 0.0171
Profondità (km) 45 ± 2 (from location)
Metodo di valutazione manual
Stato della valutazione reviewed
Versione 100 -> SURVEY-INGV
Tipo di evento earthquake
ID localizzazione 128794001

Incertezze

Campo Valore
Tipo di incertezza uncertainty ellipse
Semi-asse maggiore dell'ellisse di confidenza (metri) 1645
Semi-asse minore dell'ellisse di confidenza (metri) 800
azimuth dell’asse maggiore dell’ellisse di confidenza (gradi) 152
Regione di confidenza sul piano orizzontale espressa mediante singolo valore di incertezza (metri) 1650.0
Livello di confidenza dell'incertezza (%) 68

Qualità

Campo Valore
Maggiore gap azimutale nella distribuzione delle stazioni all'epicentro 332
Numero di fasi associato indipendentemente se utilizzate nella localizzazione (determinazione dell'Origin) 77
Numero di fasi 15
Scarto quadratico medio dei residui di tempo risultanti dal calcolo del tempo origine (Origin) della localizzazione (sec) 0.18
Distanza epicentrale della stazione piu' vicina (gradi) 0.00000
Distanza epicentrale della stazione piu’ lontana (gradi) 1.27704
Numero di stazioni in cui l’evento e’ stato osservato 64
Numero di stazioni usate nel calcolo dell'Origin 10
Parametri della magnitudo

ML:2.4

Campo Valore
Valore 2.4
Incertezza 0.3
Num. stazioni usate 44
Tipo di magnitudo ML
Localizzazione di riferimento 128794001
Agenzia INGV
Autore Sala Sismica INGV-Roma
Tempo di creazione (UTC) 2024-06-12 03:09:20
Tempi di arrivo
SCNL Time Uncertainty Polarity Evaluation_mode Phase Azimuth Distance(km) Takeoff_angle Residual Weight
IV.FIAM.HHZ. 2024-06-12T02:45:09.84 3.0 undecidable manual Sg 17.540001 0
OX.MARN.HHZ. 2024-06-12T02:45:02.46 3.0 undecidable manual Pg 18.59 0
IV.CESI.HHZ. 2024-06-12T02:45:02.96 3.0 undecidable manual Sn -7.15 0
IV.LPEL.HHZ. 2024-06-12T02:44:56.13 3.0 undecidable manual Sg 16.379999 0
IV.MODR.HHZ. 2024-06-12T02:44:40.15 3.0 undecidable manual Sg 18.52 0
IV.MSAG.HHZ. 2024-06-12T02:44:19.10 3.0 undecidable manual Sn -6.89 0
IV.VENT.EHZ. 2024-06-12T02:44:16.62 3.0 undecidable manual Sn -1.86 0
IV.MRVN.HHZ. 2024-06-12T02:44:03.61 3.0 undecidable manual Sn -6.54 0
IV.AMUR.HHZ. 2024-06-12T02:43:58.36 3.0 undecidable manual Sn -8.67 0
OT.CGL1.HHZ. 2024-06-12T02:43:55.40 3.0 undecidable manual Sn -9.67 0
IV.NOCI.HHZ. 2024-06-12T02:43:55.91 3.0 undecidable manual Sn -9.89 0
CR.STON.BHZ. 2024-06-12T02:43:54.14 3.0 negative manual Pn -2.98 0
GE.MATE.HHZ. 2024-06-12T02:43:50.14 3.0 undecidable manual Sn -9.99 0
OT.OT14.HHZ. 2024-06-12T02:43:42.46 3.0 positive manual Pn 0.68 0
IV.APRC.HHZ. 2024-06-12T02:43:41.63 3.0 positive manual Pn 1.51 0
IV.LPEL.HHZ. 2024-06-12T02:43:41.69 3.0 positive manual Pn -5.29 0
OT.OT05.HHZ. 2024-06-12T02:43:40.49 3.0 positive manual Pn 1.77 0
IV.MSAG.HHZ. 2024-06-12T02:43:39.97 3.0 positive manual Pn 0.72 0
IV.ORI.HHZ. 2024-06-12T02:43:37.23 3.0 undecidable manual Sn -8.85 0
OT.OT15.EHZ. 2024-06-12T02:43:30.34 3.0 positive manual Pn -1.43 0
HL.VLS.HHZ. 2024-06-12T02:43:29.08 3.0 negative manual Pn -3.96 0
IV.ACER.HHZ. 2024-06-12T02:43:28.35 3.0 positive manual Pn 1.74 0
IV.AMUR.HHZ. 2024-06-12T02:43:27.18 3.0 undecidable manual Pn -1.42 0
IV.PTRP.HHZ. 2024-06-12T02:43:26.58 3.0 positive manual Pg 3.6 0
IV.NOCI.HHZ. 2024-06-12T02:43:25.89 3.0 negative manual Pn -2.02 0
GE.MATE.HHZ. 2024-06-12T02:43:24.73 3.0 negative manual Pn -0.54 0
OT.CGL1.HHZ. 2024-06-12T02:43:24.89 3.0 negative manual Pn -2.61 0
IV.MIGL.HHZ. 2024-06-12T02:43:24.36 3.0 positive manual Pn 0.06 0
IV.MGR.HHZ. 2024-06-12T02:43:22.05 3.0 positive manual Pg 3.86 0
OT.TAR1.HHZ. 2024-06-12T02:43:22.52 3.0 negative manual Pn -2.59 0
IV.SCTE.HHZ. 2024-06-12T02:43:21.04 3.0 positive manual Pn -4.53 0
IV.CROCE.HHZ. 2024-06-12T02:43:19.72 3.0 undecidable manual Sn -2.99 0
IV.RAFF.HHZ. 2024-06-12T02:43:19.33 3.0 undecidable manual Sn -2.35 0
MN.CUC.HHZ. 2024-06-12T02:43:18.52 3.0 negative manual Pg 2.61 0
IV.ISPIC.HHZ. 2024-06-12T02:43:16.52 3.0 undecidable manual Sn -1.45 0
IV.HMDC.HHZ. 2024-06-12T02:43:16.26 3.0 undecidable manual Sn -0.9 0
IV.SICLA.EHZ. 2024-06-12T02:43:16.38 0.6 undecidable manual S 287 113.3976 95 -0.16 46
IV.HPAC.HHZ. 2024-06-12T02:43:16.15 3.0 undecidable manual Sn -1.27 0
IV.IFIL.HHZ. 2024-06-12T02:43:15.42 3.0 undecidable manual Sn -8.21 0
IV.MSFR.HHZ. 2024-06-12T02:43:15.82 3.0 undecidable manual Sn -1.57 0
IV.MTTG.HHZ. 2024-06-12T02:43:15.61 0.6 undecidable manual S 273 110.112 96 -0.22 46
IV.HVZN.HHZ. 2024-06-12T02:43:15.34 3.0 undecidable manual Sn -0.48 0
IV.GRIS.EHZ. 2024-06-12T02:43:15.50 3.0 negative manual Pg 3.04 0
IY.CNDF.HHZ.00 2024-06-12T02:43:13.10 0.6 undecidable manual S 273 96.3258 97 0.21 47
IV.MUCR.HHZ. 2024-06-12T02:43:12.50 3.0 undecidable manual Sg -0.13 0
IV.HLNI.HHZ. 2024-06-12T02:43:12.44 3.0 undecidable manual Sg 0.66 0
IV.ESML.HHZ. 2024-06-12T02:43:12.47 3.0 undecidable manual Sg 1.79 0
IV.HAVL.HHZ. 2024-06-12T02:43:12.72 3.0 undecidable manual Sn 0.53 0
IY.OPPI.HHZ. 2024-06-12T02:43:11.79 0.6 undecidable manual S 293 89.4438 98 0.37 46
IV.CET2.HHZ. 2024-06-12T02:43:11.68 3.0 undecidable manual Pg 2.14 0
IV.HSRS.HHZ. 2024-06-12T02:43:10.66 3.0 undecidable manual Sg 1.78 0
IV.PIPA.HHZ. 2024-06-12T02:43:10.11 3.0 negative manual Pn -0.05 0
IV.SPS2.HHZ. 2024-06-12T02:43:09.39 3.0 negative manual Pg 2.89 0
IV.MPAZ.HHZ. 2024-06-12T02:43:09.74 0.6 undecidable manual S 270 83.25 99 -0.34 47
IV.CAR1.HHZ. 2024-06-12T02:43:08.01 3.0 negative manual Pg 2.14 0
IV.MPNC.HHZ. 2024-06-12T02:43:07.00 0.3 undecidable manual P 279 141.747 94 0.36 62
IV.LADO.EHZ. 2024-06-12T02:43:07.34 3.0 positive manual Pn -0.89 0
IV.SSY.HHZ. 2024-06-12T02:43:07.80 3.0 undecidable manual Sn -2.41 0
IV.MSRU.HHZ. 2024-06-12T02:43:05.29 0.3 undecidable manual P 285 130.9689 94 -0.01 69
IV.SERS.HHZ. 2024-06-12T02:43:03.01 3.0 positive manual Pg -1.01 0
IV.SICLA.EHZ. 2024-06-12T02:43:02.77 0.1 undecidable manual P 287 113.3976 95 -0.35 88
IV.MRCB.HHZ. 2024-06-12T02:43:02.96 0.1 undecidable manual P 282 111.8991 96 0.03 95
IV.MTTG.HHZ. 2024-06-12T02:43:02.81 0.3 undecidable manual P 273 110.112 96 0.09 70
IV.GMB1.HHZ. 2024-06-12T02:43:01.83 0.1 undecidable manual P 284 102.3198 96 0.08 95
IV.SELL.HHZ. 2024-06-12T02:43:01.54 3.0 positive manual Pn -1.62 0
IY.CNDF.HHZ.00 2024-06-12T02:43:01.07 0.1 undecidable manual P 273 96.3258 97 0.05 97
IV.GRI.EHZ. 2024-06-12T02:43:01.41 3.0 positive manual Pg 0.88 0
IY.SPDC.HHZ. 2024-06-12T02:43:00.09 3.0 negative manual Pg 3.75 0
IY.OPPI.HHZ. 2024-06-12T02:42:59.98 0.3 undecidable manual P 293 89.4438 98 -0.19 72
IV.MPAZ.HHZ. 2024-06-12T02:42:59.43 0.1 undecidable manual P 270 83.25 99 0.04 100
IV.CSGE1.HHE. 2024-06-12T02:42:58.20 0.3 undecidable manual P 298 72.9714 102 0.06 76
IV.SSY.HHZ. 2024-06-12T02:42:58.16 3.0 positive manual Pg 1.48 0
MN.VAE.HHZ. 2024-06-12T02:42:56.28 3.0 negative manual Pn -6.23 0
IV.PLAC.HHZ. 2024-06-12T02:42:56.66 3.0 negative manual Pg 0.66 0
IV.HLNI.HHZ. 2024-06-12T02:42:55.02 3.0 negative manual Pg -2.54 0
IV.GALF.HHZ. 2024-06-12T02:42:54.10 3.0 negative manual P -6.06 0
IV.EPZF.HHZ. 2024-06-12T02:42:52.19 3.0 undecidable manual Pn -5.19 0
Ampiezza e Magnitudo per ciascuna stazione
SCNL mag Generic_amplitude Period Type Category Unit Time_window_reference
IV.PLAC.HHE. ML:2.2 0.000211 0.5 AML other m 2024-06-12T02:42:58.27
IV.PLAC.HHN. ML:2.1 0.0001565 0.38 AML other m 2024-06-12T02:42:58.49
IV.PLAC.HNN. ML:2.1 0.00017999999999999998 0.78 AML other m 2024-06-12T02:42:58.51
IV.ECTS.HHN. ML:2.5 0.000128 0.26 AML other m 2024-06-12T02:42:59.03
IV.GALF.HNN. ML:2.5 0.00007714999999999999 0.96 AML other m 2024-06-12T02:43:00.90
IV.GALF.HHN. ML:2.8 0.000152 0.42 AML other m 2024-06-12T02:43:01.15
IV.GALF.HNE. ML:2.7 0.000129 0.86 AML other m 2024-06-12T02:43:01.96
IV.MUCR.HHE. ML:2.4 0.00007845 0.42 AML other m 2024-06-12T02:43:01.78
IV.GALF.HHE. ML:2.9 0.000199 0.88 AML other m 2024-06-12T02:43:01.53
IV.MPAZ.HHN. ML:2.5 0.000324 0.26 AML other m 2024-06-12T02:43:10.65
IV.MPAZ.HHE. ML:2.4 0.000279 0.54 AML other m 2024-06-12T02:43:10.98
IV.MSFR.HHE. ML:2.1 0.00003705 0.42 AML other m 2024-06-12T02:43:11.36
IV.PLAC.HNE. ML:2.2 0.00019250000000000002 1.66 AML other m 2024-06-12T02:43:11.00
IY.OPPI.HHE. ML:2.8 0.0007379999999999999 0.26 AML other m 2024-06-12T02:43:12.63
IY.SPDC.HHE. ML:2.8 0.0006134999999999999 0.46 AML other m 2024-06-12T02:43:12.85
IY.OPPI.HHN. ML:2.8 0.000737 1.32 AML other m 2024-06-12T02:43:13.76
IY.CNDF.HHN.00 ML:2.6 0.00033199999999999994 0.2 AML other m 2024-06-12T02:43:13.74
IV.SSY.HHE. ML:2.5 0.0001115 0.38 AML other m 2024-06-12T02:43:14.39
IV.GMB1.HNN. ML:2.8 0.000528 0.16 AML other m 2024-06-12T02:43:14.92
IV.GMB1.HHN. ML:2.8 0.000495 1.48 AML other m 2024-06-12T02:43:15.92
IV.GMB1.HNE. ML:2.5 0.000272 1.04 AML other m 2024-06-12T02:43:15.77
IY.CNDF.HHE.00 ML:2.5 0.0003145 0.24 AML other m 2024-06-12T02:43:15.43
IV.GMB1.HHE. ML:2.7 0.00040100000000000004 0.72 AML other m 2024-06-12T02:43:15.77
IY.SPDC.HHN. ML:2.7 0.00044750000000000004 0.72 AML other m 2024-06-12T02:43:15.15
IV.SERS.HHN. ML:2.0 0.00006920000000000002 1.48 AML other m 2024-06-12T02:43:16.74
IV.ISPIC.HHN. ML:2.7 0.00011355000000000001 1.14 AML other m 2024-06-12T02:43:17.11
IV.SERS.HHE. ML:2.0 0.0000672 0.4 AML other m 2024-06-12T02:43:17.74
IV.MTTG.HHN. ML:2.5 0.0002485 0.3 AML other m 2024-06-12T02:43:18.28
IV.MRCB.HHN. ML:2.4 0.0001985 0.64 AML other m 2024-06-12T02:43:18.59
IV.MRCB.HHE. ML:2.4 0.00016549999999999998 0.68 AML other m 2024-06-12T02:43:19.45
IV.MTTG.HHE. ML:2.4 0.00021100000000000003 0.56 AML other m 2024-06-12T02:43:19.24
IV.GRI.EHE. ML:2.3 0.0001475 0.78 AML other m 2024-06-12T02:43:19.98
IV.SELL.HHN. ML:1.9 0.000050299999999999996 0.68 AML other m 2024-06-12T02:43:19.33
IV.SELL.HNN. ML:2.4 0.000175 0.68 AML other m 2024-06-12T02:43:19.33
IV.MSRU.HHN. ML:2.6 0.00023349999999999998 0.76 AML other m 2024-06-12T02:43:20.83
IV.GRI.EHN. ML:2.1 0.00010365 0.62 AML other m 2024-06-12T02:43:21.01
IV.MSRU.HHE. ML:2.8 0.000378 0.28 AML other m 2024-06-12T02:43:22.98
IV.SELL.HNE. ML:2.3 0.000131 1.3 AML other m 2024-06-12T02:43:23.66
IV.MPNC.HHN. ML:2.7 0.00027100000000000003 0.26 AML other m 2024-06-12T02:43:25.05
IV.SELL.HHE. ML:1.8 0.000039699999999999996 1.02 AML other m 2024-06-12T02:43:25.61
IV.MPNC.HHE. ML:2.8 0.0003135 0.42 AML other m 2024-06-12T02:43:26.25
IV.LADO.EHN. ML:2.2 0.0000687 1.18 AML other m 2024-06-12T02:43:27.79
IV.AGST.EHN. ML:2.6 0.00014250000000000002 1.32 AML other m 2024-06-12T02:43:28.99
IV.SPS2.HHN. ML:1.8 0.000026799999999999998 0.66 AML other m 2024-06-12T02:43:28.47
IV.SPS2.HHE. ML:1.8 0.0000227 0.58 AML other m 2024-06-12T02:43:28.78
IV.LADO.EHE. ML:2.2 0.00007775 0.82 AML other m 2024-06-12T02:43:28.44
IV.PIPA.HHN. ML:2.3 0.00006775000000000001 0.96 AML other m 2024-06-12T02:43:28.98
IV.AGST.EHE. ML:2.5 0.000134 0.66 AML other m 2024-06-12T02:43:29.14
TDMT - Time Domain Moment Tensor
Meccanismi di sorgente sismica nell'area
Download
Tipo Descrizione Link
QuakeML - small Event, Origin, FocalMechanism Download
QuakeML - full Event, Origin, FocalMechanism, Amplitude, Arrival, Pick, Station Magnitude Download
Forme d'onda Segnali sismici in formato miniseed + resp Download